Location: Unspecified
(0.0000°N, 0.0000°E)
Time: 11:13:34
(UTC+00:00)

Explorer 11/Cluster Stage 4 - Pass Details

Date: 06 October 2020
Orbit: 467 x 1258 km, 28.8° (Epoch: 28 October)

Event Time Altitude Azimuth Distance (km) Brightness Sun altitude
Rises 03:14:38 0° 324° (NW) 3,446 - -38.2°
Reaches altitude 10° 03:17:31 10° 338° (NNW) 2,646 - -37.5°
Exits shadow 03:22:15 24° 25° (NNE) 1,989 8.7 -36.3°
Maximum altitude 03:22:44 25° 31° (NNE) 1,997 8.7 -36.2°
Drops below altitude 10° 03:28:41 10° 83° (E) 3,066 10.3 -34.7°
Sets 03:32:19 0° 95° (E) 4,116 11.3 -33.8°
